Simultaneous Nadir Overpasses (SNOs) Predictions

Prediction of SNOs between GOES-16 and LANDSAT-8 Satellite Orbit:

Table of predicted SNOs for the next 14.0 days since TLE Epoch: 7/8/2023
Index Date Time (GOES-16) GOES-16 Lat,Lon LANDSAT-8 Lat,Lon Distance(km) Time Diff (sec)
1 07/08/2023 03:24:08 -0.01, -75.19 -0.55, -77.64 278.41 80
2 07/10/2023 03:09:18 -0.01, -75.21 0.12, -74.69 59.36 80
3 07/12/2023 02:57:07 -0.00, -75.22 0.73, -71.73 397.62 80
4 07/12/2023 15:18:23 0.00, -75.24 0.34, -76.89 187.17 80
5 07/14/2023 15:08:52 -0.00, -75.26 -0.30, -73.93 151.67 80
6 07/15/2023 03:30:16 0.01, -75.26 -0.82, -79.12 438.72 80
7 07/16/2023 14:56:41 -0.01, -75.29 -0.95, -70.97 491.09 80
8 07/17/2023 03:18:05 0.01, -75.29 -0.16, -76.16 99.13 80
9 07/19/2023 03:03:13 0.01, -75.32 0.45, -73.20 241.37 80
10 07/19/2023 15:24:29 -0.01, -75.34 0.61, -78.36 342.93 80
11 07/21/2023 15:14:57 -0.01, -75.38 -0.01, -75.40 1.37 80
